Meath Environmental Platform

Observations for Trim Patrick St

Time AQI Temp °C Hum % Pres Pa CO μg/m³ H₂S μg/m³ NO μg/m³ NO₂ μg/m³ O₃ μg/m³ SO₂ μg/m³ PM1 μg/m³ PM2.5 μg/m³ PM10 μg/m³
Thursday 27 August 2026
10:34 3 19.8 79 38,460 0.05 0.59 1.33 13.01 43.92 0.47 20.86 27.78 30.56
10:33 3 19.8 79 38,460 0.07 0.96 1.26 14.75 45.01 0.62 21.72 31.29 32.46
10:28 3 19.8 79 38,460 0.11 1.69 2.91 13.8 41.48 0.52 21.72 31.32 33.93
10:27 3 19.8 78 38,460 0.09 2.27 1.8 14.28 52.73 0.04 22.57 33.48 35.44
10:26 3 19.8 79 38,460 0.2 2.88 1.8 29.25 33.34 2.48 20 31.29 34.57
10:25 3 19.8 79 38,460 0.07 0.54 1.18 16.58 48.94 0 21.72 31.32 33.23
10:24 3 19.8 79 38,460 0.06 0 1.05 13.47 38.39 0.26 20.86 31.29 34.57
10:23 3 19.8 78 38,460 0.04 0 1.06 13.22 48.08 0.29 20.86 29.23 30.45
10:22 3 19.8 79 38,460 0.05 0 1 12.91 46.58 0.34 22.57 30.58 32.43
10:21 3 19.8 79 38,460 0.06 0.11 1.06 13.9 41.76 0.76 20 29.17 29.63
10:20 3 19.8 79 38,460 0.08 0.82 1.22 20.16 33.27 1.45 21.72 31.29 32.46
10:19 3 19.8 79 38,460 0.04 1.17 0.91 13.49 42.35 0.81 20.86 30.59 33.16
10:18 3 19.8 79 38,460 0.11 2.19 1.02 16.87 43.24 0.17 21.72 31.32 33.93
10:17 3 19.9 78 38,460 0.17 2.56 1.36 22.85 37.51 0.56 20.86 27.82 30.6
10:16 3 19.8 79 38,460 0.11 1.64 1.3 17.11 33.2 1.01 20.86 31.32 33.23
10:15 3 19.9 78 38,460 0.09 1.51 1.08 16.17 53.64 0.19 21.72 32.77 36.14
10:14 3 19.9 78 38,460 0.21 1.32 1.33 13.35 40.89 1.09 20.86 29.27 29.84
10:13 2 19.9 78 38,460 0.03 0.35 1.44 12.68 39.9 0.73 21.72 29.95 30.48
10:12 3 19.9 78 38,460 0.03 0.14 1.19 13.13 42.57 0 21.72 34.23 36.96
10:11 3 19.9 78 38,460 0.04 0.14 1.36 14.55 47.74 0 21.72 32.85 34.91